Location: Fuglau
(48.6333°N, 15.5500°E)
Time: 15:18:41
(UTC+00:00)

Nadezhda 4 Rocket - Pass Details

Date: 27 February 2020
Orbit: 951 x 991 km, 82.9° (Epoch: 28 March)

Event Time Altitude Azimuth Distance (km) Brightness Sun altitude
Rises 17:56:20 0° 352° (N) 3,698 7.2 -13.8°
Reaches altitude 10° 17:58:54 10° 356° (N) 2,751 6.5 -14.2°
Maximum altitude 18:05:10 64° 78° (ENE) 1,089 4.0 -15.3°
Drops below altitude 10° 18:11:26 10° 159° (SSE) 2,747 6.1 -16.3°
Sets 18:13:59 0° 163° (SSE) 3,693 6.8 -16.7°
